This demonstration page uses our WeatherBlox Daily Observations layout. Learn more.

Left ArrowRight Arrow

40.92501, -98.34201

Hourly Observations for August 25, 2022

Temp ( °F °C ) Dew Point ( °F °C ) Humidity (%) Winds ( mph kmh ) Pressure ( in mb ) Visibility ( mi km ) Precip ( " mm )
12:53 am 00:53 Clear 76 24.4 60 15.6 58 58 S 8 13 30.02 1017 10 16 0.00 0.00
1:53 am 01:53 Clear 75 23.9 60 15.6 60 60 SSW 3 6 30.03 1017 10 16 0.00 0.00
2:53 am 02:53 Mostly Cloudy 71 21.7 61 16.1 70 70 NW 5 7 30.05 1018 10 16 0.00 0.00
3:53 am 03:53 Clear 68 20 60 15.6 76 76 Calm 30.05 1018 10 16 0.00 0.00
4:53 am 04:53 Clear 68 20 61 16.1 78 78 Calm 30.06 1018 10 16 0.00 0.00
5:53 am 05:53 Partly Cloudy 69 20.6 62 16.7 78 78 NW 8 13 30.06 1018 10 16 0.00 0.00
6:53 am 06:53 Mostly Cloudy 69 20.6 64 17.8 84 84 NW 3 6 30.07 1018 10 16 0.01 0.13
7:53 am 07:53 Sunny 69 20.6 64 17.8 84 84 ENE 5 7 30.09 1019 10 16 0.00 0.00
8:53 am 08:53 Mostly Sunny 70 21.1 65 18.3 84 84 E 7 11 30.09 1019 9 14 0.00 0.00
9:53 am 09:53 Mostly Sunny 72 22.2 66 18.9 82 82 ESE 6 9 30.09 1019 10 16 0.00 0.00
10:53 am 10:53 Mostly Sunny 76 24.4 65 18.3 69 69 SE 9 15 30.10 1019 10 16 0.00 0.00
11:53 am 11:53 Mostly Sunny 79 26.1 65 18.3 62 62 SSE 7 11 30.10 1019 10 16 0.00 0.00
12:53 pm 12:53 Sunny 83 28.3 64 17.8 53 53 ESE 7 11 30.09 1019 10 16 0.00 0.00
1:53 pm 13:53 Sunny 85 29.4 64 17.8 50 50 ENE 10 17 30.08 1019 10 16 0.00 0.00
2:53 pm 14:53 Sunny 87 30.6 64 17.8 46 46 SE 10 17 30.07 1018 10 16 0.00 0.00
3:53 pm 15:53 Sunny 87 30.6 61 16.1 42 42 E 8 13 30.06 1018 10 16 0.00 0.00
4:53 pm 16:53 Sunny 87 30.6 63 17.2 45 45 ESE 12 19 30.05 1018 10 16 0.00 0.00
5:53 pm 17:53 Sunny 86 30 65 18.3 50 50 ENE 10 17 30.04 1017 10 16 0.00 0.00
6:53 pm 18:53 Sunny 84 28.9 67 19.4 57 57 E 12 19 30.04 1017 10 16 0.00 0.00
7:53 pm 19:53 Sunny 80 26.7 67 19.4 64 64 E 8 13 30.04 1017 10 16 0.00 0.00
8:53 pm 20:53 Clear 76 24.4 67 19.4 74 74 E 8 13 30.06 1018 10 16 0.00 0.00
9:53 pm 21:53 Clear 76 24.4 67 19.4 74 74 E 12 19 30.07 1018 10 16 0.00 0.00
10:53 pm 22:53 Clear 74 23.3 66 18.9 76 76 E 12 19 30.08 1019 10 16 0.00 0.00
11:53 pm 23:53 Clear 72 22.2 65 18.3 79 79 E 12 19 30.09 1019 10 16 0.00 0.00

Powered by AerisWeather